�������l�o���
Date,Time,MP-1(��Sv/h),MP-2(��Sv/h),MP-3(��Sv/h),MP-4(��Sv/h),MP-5(��Sv/h),MP-6(��Sv/h),MP-7(��Sv/h),MP-8(��Sv/h),����,����(m/s),���J
2017/01/22,00:00,1.023,1.725,1.121,1.943,1.331,0.538,0.999,0.936,��,3.3,��
2017/01/22,00:10,1.022,1.728,1.123,1.941,1.330,0.535,0.999,0.936,��,4.1,��
2017/01/22,00:20,1.025,1.726,1.123,1.944,1.328,0.535,1.000,0.936,��,3.2,��
2017/01/22,00:30,1.022,1.724,1.121,1.943,1.328,0.534,1.000,0.936,�쐼,1.4,��
2017/01/22,00:40,1.024,1.724,1.120,1.942,1.328,0.537,1.000,0.936,�쐼,1.5,��
2017/01/22,00:50,1.027,1.726,1.121,1.941,1.328,0.537,1.000,0.936,���쐼,3.2,��
2017/01/22,01:00,1.022,1.724,1.120,1.943,1.327,0.536,0.999,0.937,���쐼,3.2,��
2017/01/22,01:10,1.023,1.723,1.121,1.942,1.331,0.536,0.998,0.934,���쐼,2.3,��
2017/01/22,01:20,1.023,1.726,1.123,1.940,1.329,0.534,1.002,0.936,�쐼,1.4,��
2017/01/22,01:30,1.024,1.728,1.120,1.944,1.330,0.535,1.000,0.937,���쐼,0.6,��
2017/01/22,01:40,1.022,1.727,1.121,1.942,1.328,0.537,1.001,0.937,���쐼,0.9,��
2017/01/22,01:50,1.023,1.725,1.122,1.943,1.330,0.536,1.001,0.936,���쐼,2.6,��
2017/01/22,02:00,1.023,1.723,1.119,1.943,1.330,0.535,1.000,0.937,��,4.2,��
2017/01/22,02:10,1.023,1.724,1.120,1.942,1.327,0.536,1.001,0.938,��,3.8,��
2017/01/22,02:20,1.024,1.726,1.121,1.944,1.327,0.536,1.000,0.936,��,3.8,��
2017/01/22,02:30,1.023,1.724,1.123,1.943,1.327,0.536,1.000,0.936,���쐼,4.2,��
2017/01/22,02:40,1.024,1.725,1.122,1.942,1.330,0.535,1.003,0.936,��,4.3,��
2017/01/22,02:50,1.023,1.724,1.122,1.943,1.327,0.536,1.002,0.937,��,4.4,��
2017/01/22,03:00,1.024,1.725,1.120,1.944,1.330,0.536,1.002,0.936,��,4.1,��
2017/01/22,03:10,1.024,1.728,1.121,1.947,1.332,0.536,1.003,0.937,��,4.1,��
2017/01/22,03:20,1.021,1.723,1.121,1.944,1.329,0.536,1.002,0.938,��,4.3,��
2017/01/22,03:30,1.024,1.726,1.123,1.947,1.330,0.534,1.003,0.937,��,3.4,��
2017/01/22,03:40,1.024,1.723,1.120,1.947,1.329,0.537,1.002,0.937,���쐼,2.9,��
2017/01/22,03:50,1.024,1.725,1.123,1.945,1.329,0.536,1.002,0.937,���쐼,2.9,��
2017/01/22,04:00,1.022,1.723,1.122,1.948,1.329,0.536,1.002,0.937,���쐼,5.1,��
2017/01/22,04:10,1.023,1.727,1.121,1.945,1.328,0.535,1.003,0.938,��,4.9,��
2017/01/22,04:20,1.025,1.723,1.121,1.946,1.333,0.537,1.002,0.938,���쐼,4.3,��
2017/01/22,04:30,1.026,1.724,1.123,1.948,1.331,0.535,1.004,0.938,��,3.2,��
2017/01/22,04:40,1.026,1.726,1.121,1.947,1.332,0.535,1.003,0.938,���쐼,2.3,��
2017/01/22,04:50,1.020,1.726,1.121,1.944,1.331,0.538,1.003,0.938,���쐼,1.9,��
2017/01/22,05:00,1.024,1.727,1.123,1.945,1.332,0.537,1.003,0.937,��,0.9,��
2017/01/22,05:10,1.026,1.727,1.121,1.943,1.331,0.538,1.002,0.938,��,1.4,��
2017/01/22,05:20,1.023,1.727,1.123,1.947,1.333,0.536,1.002,0.937,��쐼,1.5,��
2017/01/22,05:30,1.025,1.726,1.122,1.948,1.332,0.538,1.002,0.938,�쐼,1.4,��
2017/01/22,05:40,1.025,1.726,1.122,1.949,1.331,0.537,1.003,0.938,�쐼,1.4,��
2017/01/22,05:50,1.027,1.726,1.122,1.946,1.329,0.536,1.004,0.938,�쐼,1.7,��
2017/01/22,06:00,1.025,1.726,1.124,1.944,1.331,0.537,1.004,0.937,�쐼,1.5,��
2017/01/22,06:10,1.026,1.727,1.120,1.947,1.330,0.536,1.005,0.938,��쓌,1.5,��
2017/01/22,06:20,1.025,1.725,1.121,1.946,1.333,0.536,1.004,0.937,��,1.2,��
2017/01/22,06:30,1.026,1.725,1.124,1.946,1.329,0.537,1.004,0.938,��,2.0,��
2017/01/22,06:40,1.023,1.725,1.122,1.949,1.329,0.537,1.004,0.939,��,2.8,��
2017/01/22,06:50,1.025,1.728,1.122,1.951,1.332,0.536,1.003,0.936,��,3.3,��
2017/01/22,07:00,1.025,1.725,1.124,1.949,1.333,0.538,1.005,0.936,��쐼,4.7,��
2017/01/22,07:10,1.026,1.725,1.123,1.947,1.331,0.538,1.005,0.939,��쐼,4.4,��
2017/01/22,07:20,1.027,1.727,1.123,1.946,1.331,0.537,1.003,0.940,��쐼,4.4,��
2017/01/22,07:30,1.026,1.729,1.122,1.947,1.330,0.537,1.003,0.937,��쐼,4.3,��
2017/01/22,07:40,1.025,1.729,1.123,1.946,1.332,0.536,1.005,0.940,��쐼,4.1,��
2017/01/22,07:50,1.024,1.725,1.123,1.946,1.332,0.536,1.003,0.938,��쐼,4.4,��
2017/01/22,08:00,1.028,1.728,1.125,1.950,1.332,0.537,1.006,0.940,��쐼,5.5,��
2017/01/22,08:10,1.028,1.728,1.124,1.949,1.333,0.536,1.005,0.938,��,6.4,��
2017/01/22,08:20,1.028,1.728,1.123,1.945,1.332,0.537,1.004,0.938,��,6.0,��
2017/01/22,08:30,1.028,1.727,1.125,1.949,1.331,0.538,1.003,0.936,��,5.9,��
2017/01/22,08:40,1.027,1.727,1.123,1.947,1.333,0.536,1.006,0.941,��쐼,5.5,��
2017/01/22,08:50,1.026,1.732,1.125,1.947,1.332,0.539,1.005,0.939,��쐼,6.0,��
2017/01/22,09:00,1.032,1.731,1.126,1.951,1.332,0.539,1.006,0.939,��쐼,6.1,��
2017/01/22,09:10,1.032,1.733,1.126,1.949,1.337,0.540,1.007,0.940,��쐼,5.6,��
2017/01/22,09:20,1.032,1.733,1.127,1.949,1.339,0.540,1.007,0.939,��,5.6,��
2017/01/22,09:30,1.033,1.733,1.129,1.950,1.339,0.541,1.010,0.941,��쐼,4.5,��
2017/01/22,09:40,1.035,1.735,1.130,1.952,1.340,0.540,1.009,0.940,��쐼,3.4,��
2017/01/22,09:50,1.035,1.736,1.130,1.951,1.339,0.541,1.008,0.941,��,3.7,��
2017/01/22,10:00,1.036,1.736,1.129,1.953,1.344,0.543,1.007,0.941,��,4.1,��
2017/01/22,10:10,1.037,1.739,1.133,1.956,1.343,0.539,1.009,0.941,��,3.7,��
2017/01/22,10:20,1.038,1.738,1.135,1.956,1.346,0.541,1.006,0.942,�쐼,5.3,��
2017/01/22,10:30,1.038,1.741,1.135,1.957,1.346,0.542,1.008,0.941,��쐼,4.9,��
2017/01/22,10:40,1.041,1.740,1.135,1.954,1.349,0.542,1.008,0.942,�쐼,6.7,��
2017/01/22,10:50,1.039,1.741,1.133,1.958,1.352,0.542,1.007,0.942,��쐼,5.8,��
2017/01/22,11:00,1.043,1.742,1.136,1.955,1.348,0.541,1.007,0.944,�쐼,4.0,��
2017/01/22,11:10,1.040,1.743,1.134,1.955,1.350,0.542,1.008,0.941,�쐼,6.4,��
2017/01/22,11:20,1.044,1.745,1.139,1.956,1.353,0.544,1.007,0.942,�쐼,7.8,��
2017/01/22,11:30,1.043,1.743,1.139,1.958,1.354,0.545,1.008,0.944,�쐼,6.9,��
2017/01/22,11:40,1.044,1.743,1.137,1.959,1.354,0.545,1.010,0.943,���쐼,4.5,��
2017/01/22,11:50,1.046,1.748,1.137,1.960,1.354,0.545,1.009,0.943,���쐼,3.5,��
2017/01/22,12:00,1.046,1.748,1.139,1.960,1.354,0.546,1.010,0.942,���쐼,4.2,��
2017/01/22,12:10,1.047,1.748,1.141,1.961,1.355,0.546,1.010,0.945,���쐼,3.7,��
2017/01/22,12:20,1.047,1.747,1.142,1.963,1.358,0.548,1.008,0.943,���쐼,5.3,��
2017/01/22,12:30,1.046,1.749,1.142,1.965,1.356,0.548,1.010,0.943,���쐼,4.7,��
2017/01/22,12:40,1.047,1.751,1.140,1.968,1.359,0.549,1.010,0.942,���k��,4.6,��
2017/01/22,12:50,1.046,1.749,1.142,1.967,1.358,0.550,1.012,0.942,���k��,5.4,��
2017/01/22,13:00,1.048,1.751,1.143,1.969,1.360,0.551,1.009,0.945,���k��,6.7,��
2017/01/22,13:10,1.049,1.751,1.144,1.969,1.358,0.551,1.011,0.945,��,7.2,��
2017/01/22,13:20,1.049,1.750,1.142,1.970,1.361,0.550,1.012,0.945,���k��,8.1,��
2017/01/22,13:30,1.047,1.750,1.143,1.969,1.362,0.551,1.012,0.941,��,6.5,��
2017/01/22,13:40,1.047,1.754,1.148,1.970,1.361,0.551,1.011,0.942,��,5.3,��
2017/01/22,13:50,1.049,1.754,1.145,1.972,1.360,0.551,1.012,0.941,��,7.7,��
2017/01/22,14:00,1.048,1.753,1.144,1.970,1.361,0.550,1.013,0.943,���쐼,5.5,��
2017/01/22,14:10,1.048,1.754,1.145,1.973,1.362,0.549,1.012,0.941,���k��,5.2,��
2017/01/22,14:20,1.048,1.755,1.144,1.973,1.363,0.551,1.014,0.940,���k��,7.6,��
2017/01/22,14:30,1.048,1.757,1.147,1.973,1.364,0.551,1.012,0.944,���k��,9.2,��
2017/01/22,14:40,1.049,1.753,1.145,1.975,1.362,0.551,1.012,0.943,���k��,6.5,��
2017/01/22,14:50,1.048,1.754,1.147,1.975,1.362,0.551,1.013,0.943,��,6.8,��
2017/01/22,15:00,1.049,1.757,1.150,1.978,1.365,0.553,1.013,0.945,���k��,6.2,��
2017/01/22,15:10,1.049,1.756,1.146,1.975,1.364,0.550,1.015,0.946,���쐼,4.0,��
2017/01/22,15:20,1.050,1.762,1.147,1.975,1.367,0.550,1.013,0.946,���k��,4.2,��
2017/01/22,15:30,1.049,1.760,1.147,1.980,1.363,0.549,1.015,0.946,��,5.2,��
2017/01/22,15:40,1.049,1.761,1.148,1.979,1.364,0.550,1.015,0.943,���k��,5.7,��
2017/01/22,15:50,1.052,1.761,1.146,1.980,1.364,0.552,1.017,0.945,���k��,7.8,��
2017/01/22,16:00,1.051,1.760,1.148,1.981,1.364,0.551,1.014,0.945,���k��,7.5,��
2017/01/22,16:10,1.051,1.759,1.146,1.977,1.366,0.551,1.017,0.944,���k��,6.4,��
2017/01/22,16:20,1.049,1.761,1.146,1.980,1.365,0.550,1.015,0.944,���k��,8.2,��
2017/01/22,16:30,1.048,1.762,1.149,1.978,1.364,0.551,1.013,0.944,���k��,8.2,��
2017/01/22,16:40,1.052,1.759,1.146,1.982,1.366,0.551,1.015,0.945,���k��,8.3,��
2017/01/22,16:50,1.050,1.759,1.146,1.979,1.367,0.550,1.015,0.944,���k��,8.1,��
2017/01/22,17:00,1.047,1.760,1.148,1.984,1.367,0.550,1.016,0.946,���k��,10.7,��
2017/01/22,17:10,1.049,1.759,1.147,1.981,1.368,0.552,1.015,0.944,���k��,8.0,��
2017/01/22,17:20,1.048,1.759,1.148,1.982,1.367,0.551,1.014,0.945,���k��,9.1,��
2017/01/22,17:30,1.049,1.765,1.147,1.983,1.366,0.551,1.013,0.945,��,7.0,��
2017/01/22,17:40,1.047,1.762,1.146,1.984,1.368,0.549,1.015,0.944,���k��,6.9,��
2017/01/22,17:50,1.047,1.764,1.147,1.983,1.368,0.549,1.014,0.946,���k��,7.2,��
2017/01/22,18:00,1.045,1.760,1.148,1.982,1.367,0.551,1.016,0.947,���k��,8.2,��
2017/01/22,18:10,1.049,1.763,1.146,1.980,1.367,0.552,1.016,0.945,��,9.4,��
2017/01/22,18:20,1.050,1.763,1.149,1.985,1.365,0.552,1.016,0.945,��,7.6,��
2017/01/22,18:30,1.048,1.764,1.145,1.984,1.369,0.549,1.015,0.946,���k��,8.2,��
2017/01/22,18:40,1.049,1.762,1.148,1.983,1.370,0.552,1.014,0.946,��,9.2,��
2017/01/22,18:50,1.046,1.762,1.149,1.984,1.367,0.552,1.016,0.946,��,10.8,��
2017/01/22,19:00,1.048,1.762,1.147,1.981,1.369,0.551,1.017,0.945,��,10.5,��
2017/01/22,19:10,1.050,1.763,1.148,1.981,1.369,0.550,1.017,0.946,��,9.9,��
2017/01/22,19:20,1.051,1.764,1.147,1.985,1.368,0.550,1.017,0.945,��,10.0,��
2017/01/22,19:30,1.048,1.760,1.147,1.985,1.368,0.551,1.015,0.947,��,9.5,��
2017/01/22,19:40,1.049,1.762,1.150,1.986,1.372,0.551,1.016,0.947,��,9.5,��
2017/01/22,19:50,1.049,1.764,1.149,1.987,1.367,0.552,1.015,0.945,��,11.3,��
2017/01/22,20:00,1.050,1.762,1.150,1.985,1.368,0.552,1.015,0.946,��,8.9,��
2017/01/22,20:10,1.048,1.763,1.148,1.984,1.368,0.552,1.017,0.946,��,10.6,��
2017/01/22,20:20,1.050,1.761,1.148,1.988,1.368,0.551,1.016,0.946,��,9.8,��
2017/01/22,20:30,1.048,1.762,1.148,1.988,1.370,0.553,1.016,0.947,��,9.2,��
2017/01/22,20:40,1.048,1.763,1.148,1.987,1.370,0.552,1.015,0.947,��,7.9,��
2017/01/22,20:50,1.048,1.765,1.148,1.987,1.371,0.550,1.015,0.945,��,5.6,��
2017/01/22,21:00,1.048,1.762,1.147,1.988,1.368,0.553,1.015,0.944,��,5.5,��
2017/01/22,21:10,1.049,1.764,1.151,1.986,1.368,0.552,1.015,0.945,���쐼,4.3,��
2017/01/22,21:20,1.047,1.762,1.146,1.987,1.367,0.553,1.014,0.946,���쐼,4.2,��
2017/01/22,21:30,1.048,1.762,1.149,1.987,1.367,0.552,1.014,0.944,��,4.1,��
2017/01/22,21:40,1.046,1.764,1.147,1.985,1.369,0.551,1.014,0.944,���k��,4.2,��
2017/01/22,21:50,1.047,1.764,1.148,1.984,1.367,0.550,1.015,0.946,�k��,5.8,��
2017/01/22,22:00,1.046,1.764,1.149,1.985,1.368,0.553,1.014,0.946,�k��,8.8,��
2017/01/22,22:10,1.046,1.762,1.146,1.989,1.369,0.554,1.015,0.944,�k��,6.7,��
2017/01/22,22:20,1.046,1.764,1.150,1.986,1.368,0.551,1.016,0.946,�k��,9.1,��
2017/01/22,22:30,1.046,1.762,1.146,1.985,1.368,0.552,1.015,0.944,���k��,10.2,��
2017/01/22,22:40,1.046,1.762,1.149,1.987,1.370,0.551,1.016,0.947,���k��,9.2,��
2017/01/22,22:50,1.045,1.763,1.147,1.988,1.367,0.551,1.016,0.945,���k��,10.8,��
2017/01/22,23:00,1.048,1.761,1.149,1.987,1.368,0.552,1.015,0.946,���k��,10.3,��
2017/01/22,23:10,1.045,1.762,1.148,1.989,1.369,0.551,1.014,0.944,���k��,9.8,��
2017/01/22,23:20,1.048,1.765,1.147,1.988,1.370,0.551,1.016,0.946,�k��,10.2,��
2017/01/22,23:30,1.046,1.764,1.149,1.988,1.370,0.553,1.014,0.945,�k��,8.6,��
2017/01/22,23:40,1.044,1.761,1.146,1.987,1.370,0.551,1.015,0.944,�k�k��,7.0,��
2017/01/22,23:50,1.043,1.762,1.146,1.990,1.371,0.551,1.015,0.945,�k�k��,8.2,��
